COSMOS 1275 DEB

Satellite information

Favourite Embed

Satellite Type and Status

DEBRISIN ORBIT

Key statistics

Satellite COSMOS 1275 DEB at a glance.

Uptime

16158

Days in orbit

Revolutions

≈ 14.4

Per day

Orbit

LEO

Low Earth Orbit

Inclination

82.8

Latest

Satellite identification and parameters

Extended collection of information and parameters for COSMOS 1275 DEB.

Object identification

Identified? True

Debris? True

Object name: COSMOS 1275 DEB

International designator: 1981-053QA

Object number (NORAD): 42114

Object ID (CCSDS): 42114

Country: COMMONWEALTH OF INDEPENDENT STATES (CIS)

Current information (Y/N): Y

RCS size: SMALL

Orbital parameters

Period: 100.221 minutes

Inclination: 82.8165 deg

SMA: 7147.15 km

Apoapsis: 796.731 km

Periapsis: 741.299 km

RAAN: 174.5918 deg

Eccentricy: 0.00387792

Argument of periapsis: 111.5279 deg

Mean anomaly: 11.2384 deg

Mean motion: 14.36823602 rev/day

Mean motion (dot): 0.00009309 rev/day2

B* drag term: 0.0031174827 1/REarth

Two-line elements (TLE)

Creation date: Aug. 30, 2025, 3:38 a.m.

Reference frame: TEME

Reference center: EARTH

Epoch: Aug. 29, 2025, 1:28 p.m. UTC

TLE line 0: 0 COSMOS 1275 DEB

TLE line 1: 1 42114U 81053QA 25241.56125323 .00009309 00000-0 31175-2 0 9990

TLE line 2: 2 42114 82.8165 174.5918 0038779 111.5279 11.2384 14.36823602609165

Live tracking on map

Real-time ground track for satellite COSMOS 1275 DEB.

In-orbit conjunctions

A list of the most updated potential collisions computed for object COSMOS 1275 DEB.

Target Orbit TCA Probability of collision Miss distance Type
SL-8 R/B LEO 2025-05-13 05:11:29 0.0001062089 450.0 (m) ROCKET BODY
IRIDIUM 33 DEB LEO 2025-03-18 02:48:14 0.0001086257 224.0 (m) DEBRIS
METEOR 1-16 DEB LEO 2024-11-12 07:26:06 0.000437905 451.0 (m) DEBRIS
FENGYUN 1C DEB SSO 2024-08-30 12:26:56 0.0001736709 129.0 (m) DEBRIS

Associated space launch

Navigation satellite providing location information for the Tsiklon-B navigation system

COSMOS 1275 DEB was lifted into orbit during the mission ‘Kosmos-3M | Parus 27’, on board a Kosmos-3M space rocket.

The launch took place on June 4, 1981, 3:41 p.m. from 132/2.

For more information about the launch, click the button.

Launch to space Kosmos-3M | Parus 27
Kosmos-3M | Parus 27

Agency: N/A

Status: Launch Successful

Launch date: June 4, 1981, 3:41 p.m. UTC

Rocket: Kosmos-3M

Launch pad: 132/2

Location: Plesetsk Cosmodrome, Russian Federation

...

Latest news about this satellite

There are no fresh news available about this satellite. Check back as we update our databases every day.


Newsletter sign-up

Weekly statistics, charts and insights to help you stay on top of the space industry.